QPF
0.00 0.00 0.00 0.00 0.00 0.00 0.00 0.00 0.00 0.00 0.00 0.00 0.00 0.00 0.00 0.00 0.00 0.00 0.00 0.00 0.00 0.00 0.00 0.00 0.00 0.00 0.00 0.00 0.00 0.00 0.00 0.00 0.00 0.00 0.00 0.00 0.00 0.00 0.00 0.00 0.00 0.00 0.00
0.00 0.00 0.00 0.00 0.00 0.00 0.00 0.00 0.00 0.00 0.00 0.00 0.00 0.00 0.00 0.00 0.00 0.00 0.00 0.00 0.00 0.00 0.00 0.00 0.00 0.00 0.00 0.00 0.00 0.00 0.00 0.00 0.00 0.00 0.00 0.00 0.00 0.00 0.00 0.00 0.00 0.00 0.00
0.00 0.00 0.00 0.00 0.00 0.00 0.00 0.00 0.00 0.00 0.00 0.00 0.00 0.00 0.00 0.00 0.00 0.00 0.00 0.00 0.00 0.00 0.00 0.00 0.00 0.00 0.00 0.00 0.00 0.00 0.00 0.00 0.00 0.00 0.00 0.00 0.00 0.00 0.00 0.00 0.00 0.00 0.00
0.00 0.00 0.00 0.00 0.00 0.00 0.00 0.00 0.00 0.00 0.00 0.00 0.00 0.00 0.00 0.00 0.00 0.00 0.00 0.00 0.00 0.00 0.00 0.00 0.00 0.00 0.00 0.00 0.00 0.00 0.00 0.00 0.00 0.00 0.00 0.00 0.00 0.00 0.00 0.00 0.00 0.00 0.00
0.00 0.00 0.00 0.00 0.00 0.00 0.00 0.00 0.00 0.00 0.00 0.00 0.00 0.00 0.00 0.00 0.00 0.00 0.00 0.00 0.00 0.00 0.00 0.00 0.00 0.00 0.00 0.00 0.00 0.00 0.00 0.00 0.00 0.00 0.00 0.00 0.00 0.00 0.00 0.00 0.00 0.00 0.00
0.00 0.00 0.00 0.00 0.00 0.00 0.00 0.00 0.00 0.00 0.00 0.00 0.00 0.00 0.00 0.00 0.00 0.00 0.00 0.00 0.00 0.00 0.00 0.00 0.00 0.00 0.00 0.00 0.00 0.00 0.00 0.00 0.00 0.00 0.00 0.00 0.00 0.00 0.00 0.00 0.00 0.00 0.00
0.00 0.00 0.00 0.00 0.00 0.00 0.00 0.00 0.00 0.00 0.00 0.00 0.00 0.00 0.00 0.00 0.00 0.00 0.00 0.00 0.00 0.00 0.00 0.00 0.00 0.00 0.00 0.00 0.00 0.00 0.00 0.00 0.00 0.00 0.00 0.00 0.00 0.00 0.00 0.00 0.00 0.00 0.00
0.00 0.00 0.00 0.00 0.00 0.00 0.00 0.00 0.00 0.00 0.00 0.00 0.00 0.00 0.00 0.00 0.00 0.00 0.00 0.00 0.00 0.00 0.00 0.00 0.00 0.00 0.00 0.00 0.00 0.00 0.00 0.00 0.00 0.00 0.00 0.00 0.00 0.00 0.00 0.00 0.00 0.00 0.00
0.00 0.00 0.00 0.00 0.00 0.00 0.00 0.00 0.00 0.00 0.00 0.00 0.00 0.00 0.00 0.00 0.00 0.00 0.00 0.00 0.00 0.00 0.00 0.00 0.00 0.00 0.00 0.00 0.00 0.00 0.00 0.00 0.00 0.00 0.00 0.00 0.00 0.00 0.00 0.00 0.00 0.00 0.00
0.00 0.00 0.00 0.00 0.00 0.00 0.00 0.00 0.00 0.00 0.00 0.00 0.00 0.00 0.00 0.00 0.00 0.00 0.00 0.00 0.00 0.00 0.00 0.00 0.00 0.00 0.00 0.00 0.00 0.00 0.00 0.00 0.00 0.00 0.00 0.00 0.00 0.00 0.00 0.00 0.00 0.00 0.00
0.00 0.00 0.00 0.00 0.00 0.00 0.00 0.00 0.00 0.00 0.00 0.00 0.00 0.00 0.00 0.00 0.00 0.00 0.00 0.00 0.00 0.00 0.00 0.00 0.00 0.00 0.00 0.00 0.00 0.00 0.00 0.00 0.00 0.00 0.00 0.00 0.00 0.00 0.00 0.00 0.00 0.00 0.00
0.00 0.00 0.00 0.00 0.00 0.00 0.00 0.00 0.00 0.00 0.00 0.00 0.00 0.00 0.00 0.00 0.00 0.00 0.00 0.00 0.00 0.00 0.00 0.00 0.00 0.00 0.00 0.00 0.00 0.00 0.00 0.00 0.00 0.00 0.00 0.00 0.00 0.00 0.00 0.00 0.00 0.00 0.00
0.00 0.00 0.00 0.00 0.00 0.00 0.00 0.00 0.00 0.00 0.00 0.00 0.00 0.00 0.00 0.00 0.00 0.00 0.00 0.00 0.00 0.00 0.00 0.00 0.00 0.00 0.00 0.00 0.00 0.00 0.00 0.00 0.00 0.00 0.00 0.00 0.00 0.00 0.00 0.00 0.00 0.00 0.00
0.00 0.00 0.00 0.00 0.00 0.00 0.00 0.00 0.00 0.00 0.00 0.00 0.00 0.00 0.00 0.00 0.00 0.00 0.00 0.00 0.00 0.00 0.00 0.00 0.00 0.00 0.00 0.00 0.00 0.00 0.00 0.00 0.00 0.00 0.00 0.00 0.00 0.00 0.00 0.00 0.00 0.00 0.01
0.00 0.00 0.00 0.00 0.00 0.00 0.00 0.00 0.00 0.00 0.00 0.00 0.00 0.00 0.00 0.00 0.00 0.00 0.00 0.00 0.00 0.00 0.00 0.00 0.00 0.00 0.00 0.00 0.00 0.00 0.00 0.00 0.00 0.00 0.00 0.00 0.00 0.00 0.01 0.01 0.01 0.01 0.02
0.00 0.00 0.00 0.00 0.00 0.00 0.00 0.00 0.00 0.00 0.00 0.00 0.00 0.00 0.00 0.00 0.00 0.00 0.00 0.00 0.00 0.00 0.00 0.00 0.00 0.00 0.00 0.00 0.00 0.00 0.00 0.00 0.00 0.00 0.00 0.00 0.00 0.00 0.01 0.01 0.02 0.02 0.02
0.00 0.00 0.00 0.00 0.00 0.00 0.00 0.00 0.00 0.00 0.00 0.00 0.00 0.00 0.00 0.00 0.00 0.00 0.00 0.00 0.00 0.00 0.00 0.00 0.00 0.00 0.00 0.00 0.00 0.00 0.00 0.00 0.00 0.00 0.00 0.00 0.00 0.00 0.00 0.00 0.01 0.01 0.01
0.00 0.00 0.00 0.00 0.00 0.00 0.00 0.00 0.00 0.00 0.00 0.00 0.00 0.00 0.00 0.00 0.00 0.00 0.00 0.00 0.00 0.00 0.00 0.00 0.00 0.00 0.00 0.00 0.00 0.00 0.00 0.00 0.00 0.00 0.00 0.00 0.00 0.00 0.01 0.01 0.01 0.01 0.01
0.00 0.00 0.00 0.00 0.00 0.00 0.00 0.00 0.00 0.00 0.00 0.00 0.00 0.00 0.00 0.00 0.00 0.00 0.00 0.00 0.00 0.00 0.00 0.00 0.00 0.00 0.00 0.00 0.00 0.00 0.00 0.00 0.00 0.00 0.00 0.00 0.00 0.01 0.02 0.02 0.01 0.01 0.01
0.00 0.00 0.00 0.00 0.00 0.00 0.00 0.00 0.00 0.00 0.00 0.00 0.00 0.00 0.00 0.00 0.00 0.00 0.00 0.00 0.00 0.00 0.00 0.00 0.00 0.00 0.00 0.00 0.00 0.00 0.00 0.00 0.00 0.00 0.00 0.01 0.01 0.02 0.03 0.02 0.02 0.02 0.01
0.00 0.00 0.00 0.00 0.00 0.00 0.00 0.00 0.00 0.00 0.00 0.00 0.00 0.00 0.00 0.00 0.00 0.00 0.00 0.00 0.00 0.00 0.00 0.00 0.00 0.00 0.00 0.00 0.00 0.00 0.00 0.00 0.01 0.01 0.01 0.01 0.01 0.02 0.03 0.03 0.03 0.03 0.03
0.00 0.00 0.00 0.00 0.00 0.00 0.00 0.00 0.00 0.00 0.00 0.00 0.00 0.00 0.00 0.00 0.00 0.00 0.00 0.00 0.00 0.00 0.00 0.00 0.00 0.00 0.00 0.00 0.00 0.00 0.01 0.01 0.01 0.01 0.00 0.00 0.01 0.03 0.03 0.03 0.03 0.03 0.03
0.00 0.00 0.00 0.00 0.00 0.00 0.00 0.00 0.00 0.00 0.00 0.00 0.00 0.00 0.00 0.00 0.00 0.00 0.00 0.00 0.00 0.00 0.00 0.00 0.00 0.00 0.00 0.00 0.00 0.00 0.01 0.01 0.01 0.01 0.01 0.02 0.03 0.03 0.02 0.01 0.02 0.02 0.01
0.00 0.00 0.00 0.00 0.00 0.00 0.00 0.00 0.00 0.00 0.00 0.00 0.00 0.00 0.00 0.00 0.00 0.00 0.00 0.00 0.00 0.00 0.00 0.00 0.00 0.00 0.00 0.00 0.00 0.00 0.01 0.01 0.01 0.01 0.01 0.02 0.02 0.01 0.01 0.01 0.01 0.00 0.01
0.00 0.00 0.00 0.00 0.00 0.00 0.00 0.00 0.00 0.00 0.00 0.00 0.00 0.00 0.00 0.00 0.00 0.00 0.00 0.00 0.00 0.00 0.00 0.00 0.00 0.00 0.00 0.00 0.01 0.02 0.02 0.02 0.02 0.03 0.03 0.02 0.01 0.01 0.00 0.00 0.00 0.00 0.01
0.00 0.00 0.00 0.00 0.00 0.00 0.00 0.00 0.00 0.00 0.00 0.00 0.00 0.00 0.00 0.00 0.00 0.00 0.00 0.00 0.00 0.00 0.00 0.00 0.00 0.00 0.00 0.01 0.01 0.02 0.02 0.02 0.03 0.03 0.03 0.01 0.01 0.01 0.01 0.01 0.01 0.00 0.01
MSLP
1016.82 1016.97 1017.04 1017.04 1017.00 1016.98 1017.02 1017.16 1017.41 1017.76 1018.18 1018.63 1019.07 1019.46 1019.78 1020.02 1020.21 1020.35 1020.47 1020.59 1020.74 1020.91 1021.11 1021.33 1021.56 1021.78 1021.98 1022.16 1022.31 1022.43 1022.51 1022.55 1022.54 1022.49 1022.37 1022.20 1021.98 1021.70 1021.39 1021.06 1020.73 1020.42 1020.14
1016.84 1017.15 1017.33 1017.40 1017.40 1017.37 1017.39 1017.49 1017.71 1018.04 1018.46 1018.93 1019.39 1019.80 1020.13 1020.36 1020.52 1020.61 1020.69 1020.76 1020.87 1021.02 1021.22 1021.44 1021.67 1021.89 1022.08 1022.25 1022.37 1022.45 1022.50 1022.51 1022.49 1022.43 1022.32 1022.16 1021.94 1021.66 1021.33 1020.98 1020.62 1020.28 1019.97
1016.68 1017.15 1017.48 1017.66 1017.73 1017.75 1017.78 1017.88 1018.09 1018.42 1018.84 1019.32 1019.80 1020.21 1020.54 1020.76 1020.88 1020.93 1020.95 1020.98 1021.06 1021.18 1021.35 1021.56 1021.78 1021.99 1022.16 1022.29 1022.38 1022.43 1022.44 1022.44 1022.41 1022.36 1022.27 1022.14 1021.94 1021.68 1021.36 1021.00 1020.61 1020.23 1019.88
1016.34 1016.97 1017.46 1017.79 1017.97 1018.07 1018.14 1018.27 1018.50 1018.83 1019.26 1019.74 1020.21 1020.63 1020.94 1021.13 1021.22 1021.24 1021.22 1021.21 1021.25 1021.35 1021.50 1021.68 1021.88 1022.06 1022.21 1022.30 1022.35 1022.36 1022.36 1022.34 1022.32 1022.28 1022.23 1022.13 1021.97 1021.74 1021.43 1021.06 1020.65 1020.23 1019.83
1015.86 1016.65 1017.30 1017.78 1018.10 1018.29 1018.44 1018.62 1018.87 1019.21 1019.64 1020.11 1020.57 1020.97 1021.26 1021.44 1021.51 1021.50 1021.46 1021.43 1021.44 1021.52 1021.65 1021.81 1021.98 1022.13 1022.23 1022.29 1022.30 1022.28 1022.24 1022.22 1022.20 1022.20 1022.17 1022.12 1022.00 1021.79 1021.50 1021.12 1020.69 1020.22 1019.76
1015.31 1016.24 1017.03 1017.65 1018.10 1018.40 1018.64 1018.86 1019.14 1019.49 1019.91 1020.37 1020.81 1021.19 1021.47 1021.64 1021.70 1021.69 1021.65 1021.62 1021.63 1021.69 1021.80 1021.94 1022.08 1022.19 1022.25 1022.27 1022.24 1022.18 1022.12 1022.09 1022.08 1022.08 1022.08 1022.05 1021.96 1021.77 1021.49 1021.11 1020.65 1020.15 1019.63
1014.76 1015.78 1016.69 1017.43 1017.99 1018.39 1018.70 1018.98 1019.28 1019.64 1020.05 1020.49 1020.91 1021.28 1021.55 1021.72 1021.80 1021.81 1021.80 1021.79 1021.81 1021.88 1021.98 1022.10 1022.20 1022.27 1022.29 1022.25 1022.18 1022.08 1022.00 1021.94 1021.92 1021.92 1021.92 1021.90 1021.81 1021.64 1021.36 1020.97 1020.49 1019.96 1019.40
1014.24 1015.31 1016.30 1017.12 1017.76 1018.25 1018.63 1018.96 1019.29 1019.65 1020.06 1020.48 1020.89 1021.25 1021.53 1021.72 1021.84 1021.89 1021.91 1021.94 1021.99 1022.07 1022.16 1022.26 1022.33 1022.35 1022.32 1022.23 1022.11 1021.97 1021.85 1021.76 1021.71 1021.68 1021.67 1021.63 1021.53 1021.35 1021.06 1020.67 1020.19 1019.64 1019.05
1013.77 1014.85 1015.86 1016.73 1017.44 1017.99 1018.43 1018.80 1019.16 1019.55 1019.95 1020.37 1020.78 1021.15 1021.45 1021.67 1021.83 1021.93 1022.01 1022.08 1022.16 1022.25 1022.33 1022.40 1022.43 1022.40 1022.32 1022.18 1022.01 1021.83 1021.66 1021.53 1021.44 1021.37 1021.32 1021.24 1021.12 1020.91 1020.61 1020.21 1019.73 1019.18 1018.60
1013.33 1014.38 1015.39 1016.27 1017.01 1017.62 1018.11 1018.54 1018.95 1019.36 1019.79 1020.22 1020.64 1021.02 1021.35 1021.61 1021.81 1021.97 1022.09 1022.20 1022.30 1022.39 1022.45 1022.48 1022.47 1022.39 1022.25 1022.06 1021.84 1021.62 1021.41 1021.24 1021.10 1020.98 1020.88 1020.76 1020.59 1020.35 1020.03 1019.63 1019.16 1018.63 1018.07
1012.88 1013.88 1014.84 1015.73 1016.49 1017.15 1017.71 1018.21 1018.69 1019.15 1019.62 1020.08 1020.52 1020.92 1021.27 1021.56 1021.80 1021.99 1022.14 1022.26 1022.36 1022.43 1022.47 1022.46 1022.39 1022.26 1022.07 1021.84 1021.59 1021.33 1021.09 1020.88 1020.70 1020.53 1020.38 1020.20 1019.98 1019.71 1019.37 1018.96 1018.51 1018.01 1017.49
1012.39 1013.31 1014.23 1015.10 1015.90 1016.61 1017.25 1017.85 1018.40 1018.94 1019.47 1019.96 1020.43 1020.85 1021.21 1021.52 1021.77 1021.97 1022.12 1022.24 1022.32 1022.36 1022.35 1022.29 1022.17 1022.00 1021.77 1021.51 1021.24 1020.96 1020.71 1020.47 1020.26 1020.06 1019.85 1019.62 1019.36 1019.04 1018.68 1018.27 1017.82 1017.35 1016.86
1011.83 1012.67 1013.55 1014.41 1015.24 1016.03 1016.76 1017.46 1018.12 1018.75 1019.34 1019.88 1020.37 1020.80 1021.16 1021.46 1021.70 1021.88 1022.01 1022.10 1022.15 1022.14 1022.09 1021.98 1021.81 1021.60 1021.35 1021.08 1020.80 1020.53 1020.27 1020.03 1019.80 1019.57 1019.32 1019.04 1018.73 1018.38 1017.99 1017.56 1017.12 1016.66 1016.19
1011.22 1011.99 1012.83 1013.69 1014.57 1015.43 1016.27 1017.08 1017.85 1018.57 1019.23 1019.81 1020.32 1020.74 1021.09 1021.36 1021.56 1021.71 1021.80 1021.85 1021.85 1021.80 1021.70 1021.54 1021.35 1021.11 1020.85 1020.58 1020.31 1020.05 1019.80 1019.56 1019.32 1019.07 1018.79 1018.48 1018.12 1017.72 1017.29 1016.84 1016.38 1015.92 1015.46
1010.61 1011.33 1012.14 1013.01 1013.93 1014.87 1015.81 1016.73 1017.60 1018.39 1019.11 1019.72 1020.23 1020.64 1020.95 1021.18 1021.33 1021.43 1021.48 1021.48 1021.44 1021.35 1021.21 1021.03 1020.82 1020.57 1020.31 1020.05 1019.79 1019.55 1019.31 1019.07 1018.83 1018.56 1018.25 1017.89 1017.49 1017.05 1016.58 1016.09 1015.60 1015.11 1014.63
1010.08 1010.76 1011.54 1012.43 1013.38 1014.39 1015.41 1016.41 1017.36 1018.21 1018.96 1019.58 1020.07 1020.45 1020.72 1020.90 1021.01 1021.06 1021.07 1021.04 1020.96 1020.85 1020.69 1020.50 1020.27 1020.02 1019.76 1019.51 1019.26 1019.02 1018.78 1018.54 1018.28 1017.99 1017.64 1017.25 1016.80 1016.31 1015.79 1015.26 1014.73 1014.21 1013.70
1009.72 1010.36 1011.13 1012.02 1013.00 1014.04 1015.12 1016.16 1017.14 1018.02 1018.77 1019.37 1019.84 1020.17 1020.39 1020.52 1020.59 1020.61 1020.60 1020.54 1020.46 1020.34 1020.18 1019.98 1019.75 1019.49 1019.23 1018.97 1018.71 1018.46 1018.21 1017.95 1017.66 1017.32 1016.94 1016.50 1016.01 1015.48 1014.91 1014.34 1013.77 1013.22 1012.67
1009.59 1010.21 1010.96 1011.84 1012.82 1013.87 1014.94 1015.99 1016.96 1017.82 1018.54 1019.10 1019.52 1019.80 1019.98 1020.08 1020.12 1020.12 1020.10 1020.04 1019.96 1019.84 1019.69 1019.49 1019.25 1018.99 1018.71 1018.42 1018.14 1017.85 1017.56 1017.25 1016.92 1016.54 1016.11 1015.63 1015.10 1014.53 1013.94 1013.34 1012.74 1012.16 1011.59
1009.73 1010.33 1011.05 1011.90 1012.85 1013.86 1014.90 1015.90 1016.82 1017.62 1018.28 1018.78 1019.14 1019.38 1019.52 1019.59 1019.61 1019.61 1019.59 1019.55 1019.48 1019.38 1019.23 1019.02 1018.77 1018.49 1018.17 1017.84 1017.51 1017.16 1016.82 1016.45 1016.07 1015.64 1015.17 1014.65 1014.10 1013.51 1012.90 1012.29 1011.68 1011.09 1010.52
1010.10 1010.69 1011.38 1012.18 1013.07 1014.01 1014.97 1015.89 1016.72 1017.43 1018.01 1018.44 1018.74 1018.93 1019.03 1019.09 1019.11 1019.11 1019.10 1019.08 1019.02 1018.92 1018.76 1018.54 1018.27 1017.95 1017.59 1017.20 1016.80 1016.40 1015.99 1015.57 1015.13 1014.66 1014.16 1013.63 1013.06 1012.47 1011.87 1011.26 1010.67 1010.09 1009.52
1010.65 1011.22 1011.87 1012.61 1013.41 1014.26 1015.11 1015.92 1016.64 1017.26 1017.74 1018.10 1018.33 1018.48 1018.56 1018.60 1018.62 1018.63 1018.62 1018.60 1018.54 1018.43 1018.25 1018.01 1017.70 1017.33 1016.92 1016.48 1016.02 1015.56 1015.10 1014.64 1014.16 1013.68 1013.16 1012.63 1012.07 1011.50 1010.92 1010.34 1009.77 1009.21 1008.67
1011.28 1011.82 1012.43 1013.09 1013.80 1014.54 1015.28 1015.96 1016.57 1017.08 1017.47 1017.76 1017.94 1018.05 1018.11 1018.14 1018.15 1018.16 1018.14 1018.10 1018.02 1017.88 1017.68 1017.39 1017.04 1016.62 1016.17 1015.68 1015.19 1014.69 1014.21 1013.72 1013.24 1012.75 1012.25 1011.74 1011.21 1010.66 1010.11 1009.57 1009.03 1008.50 1007.98
1011.88 1012.40 1012.95 1013.54 1014.16 1014.79 1015.41 1015.98 1016.48 1016.89 1017.21 1017.43 1017.58 1017.66 1017.70 1017.71 1017.71 1017.69 1017.65 1017.58 1017.46 1017.27 1017.01 1016.68 1016.28 1015.83 1015.34 1014.84 1014.33 1013.83 1013.35 1012.88 1012.42 1011.96 1011.50 1011.02 1010.52 1010.01 1009.49 1008.97 1008.46 1007.95 1007.45
1012.38 1012.87 1013.38 1013.90 1014.43 1014.96 1015.47 1015.94 1016.35 1016.68 1016.93 1017.11 1017.23 1017.29 1017.31 1017.31 1017.29 1017.24 1017.15 1017.03 1016.84 1016.60 1016.28 1015.90 1015.46 1014.98 1014.48 1013.98 1013.49 1013.02 1012.58 1012.16 1011.75 1011.34 1010.92 1010.48 1010.02 1009.54 1009.04 1008.54 1008.03 1007.53 1007.04
1012.73 1013.20 1013.66 1014.12 1014.57 1015.02 1015.44 1015.82 1016.16 1016.43 1016.64 1016.79 1016.88 1016.94 1016.95 1016.92 1016.87 1016.78 1016.64 1016.44 1016.19 1015.88 1015.50 1015.06 1014.59 1014.10 1013.61 1013.14 1012.70 1012.28 1011.91 1011.55 1011.21 1010.86 1010.49 1010.09 1009.66 1009.20 1008.71 1008.20 1007.69 1007.17 1006.67
1012.97 1013.40 1013.82 1014.22 1014.61 1014.98 1015.32 1015.64 1015.91 1016.14 1016.32 1016.45 1016.54 1016.58 1016.58 1016.54 1016.45 1016.31 1016.11 1015.85 1015.52 1015.13 1014.70 1014.22 1013.73 1013.24 1012.78 1012.35 1011.96 1011.62 1011.32 1011.04 1010.76 1010.47 1010.14 1009.78 1009.36 1008.90 1008.40 1007.88 1007.35 1006.81 1006.29
Thickness
5680 5679 5678 5677 5676 5674 5672 5669 5665 5661 5658 5653 5648 5643 5638 5636 5633 5631 5628 5624 5621 5617 5614 5610 5606 5603 5599 5596 5593 5590 5587 5585 5583 5581 5582 5584 5585 5584 5584 5583 5581 5580 5579
5672 5671 5670 5668 5667 5665 5663 5660 5658 5654 5651 5647 5642 5637 5632 5628 5625 5622 5620 5617 5613 5610 5606 5602 5599 5595 5592 5588 5585 5582 5578 5576 5573 5570 5569 5570 5573 5574 5576 5574 5572 5571 5569
5669 5665 5662 5660 5657 5656 5654 5654 5650 5647 5644 5640 5634 5628 5623 5619 5615 5612 5610 5608 5605 5602 5598 5594 5591 5587 5584 5580 5577 5574 5570 5566 5564 5560 5556 5555 5558 5559 5566 5565 5564 5561 5558
5664 5659 5656 5652 5650 5648 5646 5645 5642 5639 5635 5632 5627 5621 5615 5610 5607 5603 5600 5598 5596 5593 5589 5586 5582 5578 5575 5571 5568 5565 5561 5558 5554 5550 5547 5545 5544 5543 5552 5553 5552 5551 5549
5659 5655 5651 5647 5643 5640 5637 5635 5633 5630 5627 5623 5618 5613 5607 5602 5598 5594 5591 5588 5585 5583 5580 5576 5573 5569 5565 5562 5559 5556 5552 5548 5545 5541 5538 5535 5531 5528 5529 5539 5542 5539 5537
5653 5649 5644 5640 5636 5631 5629 5626 5624 5621 5617 5614 5609 5604 5599 5594 5589 5585 5581 5578 5575 5572 5569 5566 5563 5559 5556 5552 5549 5546 5543 5539 5536 5532 5528 5524 5521 5518 5515 5519 5525 5527 5528
5648 5643 5638 5634 5629 5624 5621 5618 5615 5611 5608 5604 5600 5595 5590 5585 5581 5577 5572 5568 5564 5561 5559 5556 5552 5549 5546 5543 5540 5536 5533 5529 5526 5522 5519 5516 5512 5509 5506 5505 5509 5511 5514
5644 5640 5635 5630 5624 5619 5615 5611 5607 5603 5599 5595 5591 5586 5582 5577 5572 5568 5563 5559 5555 5552 5549 5546 5542 5539 5536 5533 5530 5526 5523 5520 5516 5512 5509 5505 5502 5498 5493 5489 5488 5493 5499
5639 5636 5630 5625 5619 5614 5609 5604 5600 5596 5591 5586 5582 5577 5572 5568 5563 5558 5554 5550 5546 5542 5539 5536 5532 5529 5526 5523 5519 5516 5512 5509 5505 5501 5498 5494 5491 5486 5481 5476 5469 5465 5473
5634 5630 5626 5621 5615 5609 5603 5598 5593 5588 5583 5578 5573 5568 5563 5558 5553 5548 5544 5540 5536 5532 5529 5525 5522 5518 5515 5512 5508 5505 5502 5498 5495 5490 5486 5483 5478 5474 5468 5462 5457 5450 5448
5633 5628 5623 5617 5610 5602 5596 5590 5585 5579 5574 5568 5563 5558 5552 5547 5543 5538 5533 5529 5525 5521 5518 5514 5511 5507 5504 5501 5497 5494 5490 5487 5484 5479 5475 5471 5466 5461 5456 5449 5443 5437 5431
5631 5625 5618 5610 5602 5596 5589 5583 5577 5571 5565 5559 5553 5547 5542 5537 5531 5527 5523 5518 5514 5511 5507 5504 5500 5497 5494 5490 5486 5483 5480 5475 5472 5468 5463 5458 5453 5448 5442 5435 5430 5424 5418
5623 5617 5610 5604 5598 5590 5583 5576 5569 5562 5556 5549 5543 5537 5531 5526 5521 5516 5512 5508 5503 5500 5496 5492 5489 5486 5483 5479 5476 5472 5468 5464 5460 5455 5450 5445 5439 5434 5428 5422 5416 5411 5406
5617 5610 5604 5597 5590 5582 5575 5567 5559 5552 5546 5539 5532 5526 5521 5515 5510 5505 5501 5497 5493 5489 5485 5481 5478 5475 5471 5468 5464 5460 5456 5452 5448 5442 5437 5431 5425 5419 5414 5408 5403 5397 5392
5609 5604 5597 5589 5580 5572 5564 5557 5549 5542 5536 5529 5522 5516 5511 5505 5500 5495 5491 5486 5482 5478 5474 5470 5467 5463 5459 5456 5453 5449 5446 5441 5436 5431 5424 5418 5412 5407 5401 5396 5390 5383 5378
5603 5596 5589 5580 5572 5564 5555 5547 5539 5532 5525 5518 5512 5506 5500 5495 5489 5485 5480 5475 5471 5467 5463 5459 5455 5452 5449 5446 5443 5440 5435 5430 5423 5418 5412 5405 5398 5393 5388 5382 5376 5368 5361
5594 5587 5580 5572 5563 5555 5546 5537 5529 5522 5514 5508 5501 5496 5490 5484 5479 5475 5470 5465 5460 5456 5452 5448 5444 5441 5437 5434 5432 5428 5424 5417 5410 5403 5397 5391 5385 5378 5370 5365 5360 5353 5346
5584 5577 5568 5559 5550 5542 5534 5526 5518 5510 5503 5497 5491 5485 5480 5474 5469 5464 5459 5454 5450 5446 5442 5438 5434 5430 5426 5423 5420 5416 5411 5404 5396 5388 5381 5375 5369 5360 5354 5350 5346 5340 5335
5574 5565 5556 5547 5538 5530 5522 5514 5506 5498 5492 5486 5480 5475 5469 5464 5459 5454 5449 5445 5441 5436 5432 5428 5424 5419 5415 5411 5406 5402 5396 5390 5383 5375 5366 5358 5352 5347 5341 5336 5333 5331 5327
5558 5549 5541 5533 5525 5517 5509 5502 5494 5487 5481 5476 5470 5465 5460 5454 5449 5445 5440 5436 5431 5427 5423 5418 5413 5407 5402 5397 5392 5386 5380 5375 5369 5362 5353 5344 5337 5333 5328 5322 5320 5320 5319
5542 5535 5528 5520 5511 5504 5497 5489 5482 5475 5471 5466 5460 5455 5450 5444 5439 5435 5430 5425 5421 5416 5412 5408 5403 5395 5389 5384 5377 5369 5362 5356 5352 5347 5339 5331 5324 5321 5317 5314 5312 5311 5312
5526 5520 5512 5504 5497 5491 5484 5477 5470 5466 5460 5455 5450 5444 5439 5434 5430 5424 5419 5414 5408 5403 5399 5394 5391 5384 5376 5368 5361 5355 5347 5340 5335 5330 5324 5318 5314 5312 5310 5307 5306 5306 5306
5513 5506 5498 5490 5483 5478 5472 5465 5460 5454 5449 5443 5438 5434 5429 5424 5418 5412 5407 5402 5396 5390 5386 5380 5376 5373 5365 5354 5346 5339 5333 5325 5318 5315 5311 5309 5306 5304 5301 5299 5299 5298 5295
5498 5491 5485 5477 5471 5465 5459 5454 5449 5443 5438 5432 5427 5423 5418 5413 5408 5402 5396 5389 5383 5376 5370 5365 5360 5357 5351 5340 5330 5323 5317 5311 5305 5301 5299 5298 5296 5293 5292 5292 5289 5287 5286
5484 5478 5472 5465 5459 5453 5448 5443 5437 5432 5426 5421 5416 5411 5406 5401 5396 5391 5384 5377 5371 5360 5354 5349 5342 5337 5335 5328 5318 5310 5305 5299 5294 5292 5290 5287 5285 5283 5283 5283 5282 5281 5280
5471 5465 5459 5453 5447 5442 5436 5432 5427 5421 5415 5410 5405 5400 5395 5389 5383 5378 5375 5369 5359 5353 5343 5333 5325 5320 5314 5310 5305 5298 5292 5288 5284 5282 5279 5276 5275 5275 5276 5276 5276 5276 5275